Regional Weather Roundup
Issued by NWS Little Rock, AR

Home | Current Version | Previous Version | Graphics & Text | Print | Product List | Glossary On
Versions: 1 2 3 4 5 6 7 8 9 10 11 12 13 14 15 16 17 18 19 20 21 22 23 24 25 26 27 28 29 30 31 32 33 34 35 36 37 38 39 40 41 42 43 44 45 46 47 48 49 50
000
ASUS44 KLZK 061005
RWRLZK

WEATHER ROUNDUP FOR ARKANSAS
NATIONAL WEATHER SERVICE LITTLE ROCK AR
400 AM CST FRI MAR 06 2015

NOTE: "FAIR" INDICATES FEW OR NO CLOUDS BELOW 12,000 FEET WITH NO
SIGNIFICANT WEATHER AND/OR OBSTRUCTIONS TO VISIBILITY.

ARZ001-003-010-029-061100-
NORTHWEST ARKANSAS

CITY           SKY/WX    TMP DP  RH WIND       PRES   REMARKS
FAYETTEVILLE   CLEAR     21  15  78 SW7       30.49F WCI  12
FORT SMITH     CLEAR     25  21  85 CALM      30.56S
HARRISON       FAIR      15  12  88 SE6       30.48S WCI   6
BENTONVILLE    CLEAR     25  12  58 SW6       30.48R WCI  18
ROGERS         CLEAR     22  15  75 S7        30.48S WCI  13
SILOAM SPGS    CLEAR     21  10  63 S8        30.49F WCI  12
HIGHFILL       CLEAR     23  14  68 S3        30.47S
$$

ARZ004-005-016-061100-
NORTH CENTRAL ARKANSAS

CITY           SKY/WX    TMP DP  RH WIND       PRES   REMARKS
BATESVILLE     PTCLDY    12   9  85 CALM      30.57S
FLIPPIN        FAIR      12   9  85 CALM      30.52R
MTN HOME       CLEAR     15  11  83 CALM      30.51S
$$

ARZ040-041-061100-
WEST CENTRAL ARKANSAS

CITY           SKY/WX    TMP DP  RH WIND       PRES   REMARKS
MENA           CLEAR     23  19  86 CALM      30.54S
MOUNT IDA      CLEAR     20  16  84 CALM      30.53S
$$

ARZ009-017-025-026-028-061100-
NORTHEAST ARKANSAS

CITY           SKY/WX    TMP DP  RH WIND       PRES   REMARKS
CORNING        FAIR      14  10  85 NE3       30.60S
JONESBORO      PTCLDY     6   4  91 NE3       30.59S
NEWPORT        PTCLDY    14  13  96 CALM      30.61R
WALNUT RIDGE     N/A      9   3  78 CALM      30.59S VSB<1/4
BLYTHEVILLE    MOCLDY     4   1  88 NE3       30.60S
$$

ARZ022-023-033-042-044-061100-
CENTRAL ARKANSAS

CITY           SKY/WX    TMP DP  RH WIND       PRES   REMARKS
LITTLE ROCK    CLEAR     19  14  81 CALM      30.59S
N LITTLE ROCK    N/A     20  17  90 E2        30.59S
JACKSONVILLE   CLEAR     15  12  90 CALM      30.57F
SEARCY         CLEAR     12  10  92 CALM      30.61S
HOT SPRINGS    CLEAR     20  17  88 CALM      30.57S
RUSSELLVILLE   CLEAR     20  17  88 CALM      30.56F
CLINTON        FAIR      14  12  92 CALM      30.59R
$$

ARZ036-061100-
EAST ARKANSAS

CITY           SKY/WX    TMP DP  RH WIND       PRES   REMARKS
WEST MEMPHIS   PTCLDY    13  11  92 CALM      30.58S
$$

ARZ050-053-066-070-073-061100-
SOUTHWEST ARKANSAS

CITY           SKY/WX    TMP DP  RH WIND       PRES   REMARKS
ARKADELPHIA    FAIR      23  23 100 CALM      30.60S
CAMDEN         CLEAR     18  16  93 CALM      30.60S
TEXARKANA      CLEAR     24  22  91 CALM      30.57F
EL DORADO      CLEAR     21  18  88 CALM      30.58S
DE QUEEN       CLEAR     22  20  92 CALM      30.57F
$$

ARZ056-057-069-061100-
SOUTHEAST ARKANSAS

CITY           SKY/WX    TMP DP  RH WIND       PRES   REMARKS
PINE BLUFF     CLEAR     19  15  84 CALM      30.59S
STUTTGART      CLEAR     19  12  73 N5        30.59S WCI  13
MONTICELLO     CLEAR     21  16  81 CALM      30.57S

$$




USA.gov is the U.S. government's official web portal to all federal, state and local government web resources and services.